| time (UTC) | temp F | wind direction | speed knots | gust knots | rain 1hr in | rain 24hr in | rain mn in | humidity % | barometer mb |
| 20260508043052 | 61 | 0 | 0.0 | 2.6 | 0.00 | 0.00 | 0.00 | 89 | 1015.6 |
| 20260508041601 | 62 | 113 | 0.9 | 2.6 | 0.00 | 0.00 | 0.00 | 88 | 1015.4 |
| 20260508040059 | 62 | 0 | 0.9 | 2.6 | 0.00 | 0.00 | 0.00 | 88 | 1015.2 |
| 20260508034552 | 62 | 126 | 0.9 | 2.6 | 0.00 | 0.00 | 0.00 | 87 | 1015.0 |
| 20260508033052 | 62 | 0 | 0.0 | 5.2 | 0.00 | 0.00 | 0.00 | 86 | 1014.8 |
| 20260508031551 | 62 | 133 | 0.0 | 2.6 | 0.00 | 0.00 | 0.00 | 86 | 1014.6 |
| 20260508030057 | 63 | 141 | 0.0 | 2.6 | 0.00 | 0.00 | 0.00 | 85 | 1014.5 |
| 20260508024553 | 63 | 0 | 0.0 | 4.3 | 0.00 | 0.00 | 0.00 | 85 | 1014.2 |
| 20260508023059 | 63 | 110 | 0.9 | 4.3 | 0.00 | 0.00 | 0.00 | 84 | 1014.1 |
| 20260508021554 | 64 | 128 | 1.7 | 7.8 | 0.00 | 0.00 | 0.00 | 83 | 1014.1 |
| 20260508020057 | 65 | 0 | 0.0 | 6.1 | 0.00 | 0.00 | 0.00 | 82 | 1014.0 |
| 20260508014558 | 66 | 86 | 0.0 | 2.6 | 0.00 | 0.00 | 0.00 | 79 | 1014.0 |
| 20260508013053 | 67 | 95 | 0.9 | 5.2 | 0.00 | 0.00 | 0.00 | 79 | 1013.8 |
| 20260508011558 | 67 | 0 | 0.0 | 3.5 | 0.00 | 0.00 | 0.00 | 77 | 1013.8 |
| 20260508010055 | 68 | 0 | 1.7 | 8.7 | 0.00 | 0.00 | 0.00 | 76 | 1013.9 |
| 20260508004554 | 68 | 113 | 0.0 | 4.3 | 0.00 | 0.00 | 0.00 | 77 | 1013.8 |
| 20260508003053 | 68 | 146 | 0.9 | 7.0 | 0.00 | 0.00 | 0.00 | 78 | 1013.9 |
| 20260508001551 | 68 | 0 | 1.7 | 7.8 | 0.00 | 0.00 | 0.00 | 76 | 1013.8 |
| 20260508000058 | 68 | 0 | 1.7 | 7.8 | 0.00 | 0.00 | 0.00 | 76 | 1013.9 |
| 20260507234604 | 68 | 132 | 0.9 | 6.1 | 0.00 | 0.00 | 0.00 | 77 | 1014.0 |
| 20260507233113 | 69 | 119 | 0.9 | 7.8 | 0.00 | 0.00 | 0.00 | 76 | 1014.0 |
| 20260507231549 | 69 | 133 | 1.7 | 7.8 | 0.00 | 0.00 | 0.00 | 76 | 1014.1 |
| 20260507230052 | 70 | 139 | 1.7 | 7.0 | 0.00 | 0.00 | 0.00 | 75 | 1014.0 |
| 20260507224553 | 68 | 202 | 0.9 | 10.4 | 0.00 | 0.00 | 0.00 | 76 | 1014.0 |
| 20260507223105 | 68 | 104 | 0.9 | 7.0 | 0.00 | 0.00 | 0.00 | 77 | 1014.0 |
| 20260507221556 | 68 | 117 | 1.7 | 7.0 | 0.00 | 0.00 | 0.00 | 77 | 1014.3 |
| 20260507220057 | 68 | 232 | 1.7 | 5.2 | 0.00 | 0.00 | 0.00 | 75 | 1014.5 |
| 20260507214551 | 69 | 132 | 1.7 | 6.1 | 0.00 | 0.00 | 0.00 | 74 | 1014.6 |
| 20260507213052 | 69 | 347 | 1.7 | 7.8 | 0.00 | 0.00 | 0.00 | 74 | 1014.7 |
| 20260507211559 | 68 | 150 | 2.6 | 7.8 | 0.00 | 0.00 | 0.00 | 75 | 1014.8 |
| 20260507210109 | 69 | 125 | 1.7 | 9.6 | 0.00 | 0.00 | 0.00 | 75 | 1015.1 |
| 20260507204554 | 69 | 192 | 1.7 | 10.4 | 0.00 | 0.00 | 0.00 | 76 | 1015.2 |
| 20260507203053 | 69 | 126 | 0.9 | 7.8 | 0.00 | 0.00 | 0.00 | 75 | 1015.3 |
| 20260507201555 | 70 | 82 | 0.9 | 7.0 | 0.00 | 0.00 | 0.00 | 74 | 1015.4 |
| 20260507200058 | 70 | 0 | 1.7 | 9.6 | 0.00 | 0.00 | 0.00 | 74 | 1015.6 |
| 20260507194558 | 70 | 127 | 1.7 | 7.0 | 0.00 | 0.00 | 0.00 | 74 | 1015.7 |
| 20260507193050 | 69 | 173 | 1.7 | 7.8 | 0.00 | 0.00 | 0.00 | 75 | 1015.8 |
| 20260507191552 | 70 | 152 | 2.6 | 6.1 | 0.00 | 0.00 | 0.00 | 74 | 1015.9 |
| 20260507190059 | 70 | 0 | 1.7 | 6.1 | 0.00 | 0.00 | 0.00 | 73 | 1016.0 |
| 20260507184555 | 69 | 0 | 0.9 | 7.0 | 0.00 | 0.00 | 0.00 | 75 | 1016.0 |
| 20260507183112 | 69 | 109 | 1.7 | 5.2 | 0.00 | 0.00 | 0.00 | 76 | 1016.0 |
| 20260507181557 | 68 | 136 | 1.7 | 7.0 | 0.00 | 0.00 | 0.00 | 76 | 1016.1 |
| 20260507180054 | 68 | 176 | 0.9 | 6.1 | 0.00 | 0.00 | 0.00 | 77 | 1016.2 |
| 20260507174603 | 68 | 127 | 2.6 | 7.0 | 0.00 | 0.00 | 0.00 | 75 | 1016.3 |
| 20260507173113 | 68 | 172 | 0.9 | 6.1 | 0.00 | 0.00 | 0.00 | 76 | 1016.4 |
| 20260507171554 | 68 | 174 | 0.9 | 5.2 | 0.00 | 0.00 | 0.00 | 77 | 1016.4 |
| 20260507170054 | 68 | 96 | 0.9 | 4.3 | 0.00 | 0.00 | 0.00 | 77 | 1016.3 |
| 20260507164630 | 68 | 190 | 0.9 | 5.2 | 0.00 | 0.00 | 0.00 | 75 | 1016.4 |
| 20260507163059 | 68 | 106 | 0.0 | 3.5 | 0.00 | 0.00 | 0.00 | 77 | 1016.5 |
| 20260507161559 | 67 | 140 | 0.9 | 2.6 | 0.00 | 0.00 | 0.00 | 77 | 1016.5 |
| 20260507160051 | 66 | 140 | 0.9 | 3.5 | 0.00 | 0.00 | 0.00 | 80 | 1016.6 |
| 20260507154558 | 65 | 0 | 1.7 | 7.0 | 0.00 | 0.00 | 0.00 | 81 | 1016.6 |
| 20260507153059 | 65 | 162 | 0.9 | 4.3 | 0.00 | 0.00 | 0.00 | 82 | 1016.5 |
| 20260507151554 | 64 | 139 | 0.9 | 3.5 | 0.00 | 0.00 | 0.00 | 82 | 1016.6 |
| 20260507150053 | 63 | 0 | 0.9 | 4.3 | 0.00 | 0.00 | 0.00 | 85 | 1016.6 |
| 20260507144551 | 63 | 144 | 0.9 | 3.5 | 0.00 | 0.00 | 0.00 | 86 | 1016.6 |
| 20260507143109 | 62 | 0 | 0.0 | 3.5 | 0.00 | 0.00 | 0.00 | 88 | 1016.5 |
| 20260507141558 | 61 | 151 | 0.0 | 2.6 | 0.00 | 0.00 | 0.00 | 89 | 1016.4 |
| 20260507140057 | 60 | 0 | 0.0 | 2.6 | 0.00 | 0.00 | 0.00 | 91 | 1016.2 |
| 20260507134553 | 59 | 0 | 0.0 | 2.6 | 0.00 | 0.00 | 0.00 | 92 | 1016.1 |
| 20260507133056 | 58 | 150 | 0.0 | 1.7 | 0.00 | 0.00 | 0.00 | 92 | 1015.9 |
| 20260507131601 | 57 | 0 | 0.0 | 0.9 | 0.00 | 0.00 | 0.00 | 93 | 1015.9 |
| 20260507130055 | 57 | 0 | 0.0 | 1.7 | 0.00 | 0.00 | 0.00 | 92 | 1015.8 |
| 20260507124601 | 57 | 0 | 0.0 | 2.6 | 0.00 | 0.00 | 0.00 | 92 | 1015.7 |
| 20260507123054 | 57 | 153 | 0.0 | 0.9 | 0.00 | 0.00 | 0.00 | 92 | 1015.7 |
| 20260507121553 | 57 | 0 | 0.0 | 0.0 | 0.00 | 0.00 | 0.00 | 92 | 1015.8 |
| 20260507120059 | 57 | 0 | 0.0 | 0.0 | 0.00 | 0.00 | 0.00 | 92 | 1015.8 |
| 20260507114608 | 57 | 0 | 0.0 | 0.0 | 0.00 | 0.00 | 0.00 | 91 | 1015.7 |
| 20260507113117 | 57 | 0 | 0.0 | 0.9 | 0.00 | 0.00 | 0.00 | 91 | 1015.8 |
| 20260507111556 | 57 | 0 | 0.0 | 0.9 | 0.00 | 0.00 | 0.00 | 91 | 1015.8 |
| 20260507110053 | 58 | 0 | 0.0 | 0.9 | 0.00 | 0.00 | 0.00 | 91 | 1015.9 |
| 20260507104552 | 58 | 0 | 0.0 | 1.7 | 0.00 | 0.00 | 0.00 | 91 | 1016.0 |
| 20260507103054 | 58 | 0 | 0.0 | 1.7 | 0.00 | 0.00 | 0.00 | 91 | 1016.2 |
| 20260507101550 | 58 | 0 | 0.0 | 1.7 | 0.00 | 0.00 | 0.00 | 91 | 1016.2 |
| 20260507100056 | 58 | 0 | 0.0 | 0.0 | 0.00 | 0.00 | 0.00 | 90 | 1016.2 |
| 20260507094550 | 58 | 0 | 0.0 | 0.9 | 0.00 | 0.00 | 0.00 | 90 | 1016.3 |
| 20260507093053 | 58 | 0 | 0.0 | 0.9 | 0.00 | 0.00 | 0.00 | 89 | 1016.5 |
| 20260507091612 | 58 | 0 | 0.0 | 0.9 | 0.00 | 0.00 | 0.00 | 89 | 1016.5 |
| 20260507090051 | 59 | 0 | 0.0 | 1.7 | 0.00 | 0.00 | 0.00 | 89 | 1016.6 |
| 20260507084603 | 59 | 0 | 0.0 | 1.7 | 0.00 | 0.00 | 0.00 | 89 | 1016.7 |
| 20260507083050 | 59 | 0 | 0.0 | 1.7 | 0.00 | 0.00 | 0.00 | 89 | 1016.9 |
| 20260507081559 | 59 | 151 | 0.0 | 2.6 | 0.00 | 0.00 | 0.00 | 89 | 1017.0 |
| 20260507080055 | 59 | 151 | 0.0 | 2.6 | 0.00 | 0.00 | 0.00 | 89 | 1017.0 |
| 20260507074557 | 59 | 0 | 0.0 | 2.6 | 0.00 | 0.00 | 0.00 | 89 | 1017.1 |
| 20260507073056 | 59 | 0 | 0.0 | 2.6 | 0.00 | 0.00 | 0.00 | 89 | 1017.2 |
| 20260507071553 | 59 | 0 | 0.0 | 3.5 | 0.00 | 0.00 | 0.00 | 90 | 1017.2 |
| 20260507070054 | 59 | 0 | 0.0 | 3.5 | 0.00 | 0.00 | 0.00 | 90 | 1017.2 |
| 20260507064557 | 59 | 0 | 0.0 | 1.7 | 0.00 | 0.00 | 0.00 | 89 | 1017.3 |
| 20260507063053 | 59 | 0 | 0.0 | 3.5 | 0.00 | 0.00 | 0.00 | 89 | 1017.4 |
| 20260507061554 | 59 | 136 | 0.9 | 3.5 | 0.00 | 0.00 | 0.00 | 89 | 1017.3 |
| 20260507060101 | 60 | 137 | 0.9 | 3.5 | 0.00 | 0.00 | 0.00 | 89 | 1017.4 |
| 20260507054557 | 60 | 130 | 0.0 | 5.2 | 0.00 | 0.00 | 0.00 | 88 | 1017.4 |
| 20260507053055 | 60 | 0 | 0.9 | 5.2 | 0.00 | 0.00 | 0.00 | 88 | 1017.5 |
| 20260507051553 | 60 | 0 | 0.9 | 3.5 | 0.00 | 0.00 | 0.00 | 88 | 1017.4 |
| 20260507050057 | 60 | 130 | 0.0 | 2.6 | 0.00 | 0.00 | 0.00 | 87 | 1017.4 |
| 20260507044609 | 61 | 0 | 0.0 | 4.3 | 0.00 | 0.00 | 0.00 | 86 | 1017.4 |